Regional Weather Roundup
Issued by NWS Upton, NY

Current Version | Previous Version | Graphics & Text | Print | Product List | Glossary Off
Versions: 1 2 3 4 5 6 7 8 9 10 11 12 13 14 15 16 17 18 19 20 21 22 23 24 25 26 27 28 29 30 31 32 33 34 35 36 37 38 39 40 41 42 43 44 45 46 47 48 49 50

000
ASUS41 KOKX 291105
RWROKX

REGIONAL WEATHER ROUNDUP
NATIONAL WEATHER SERVICE NEW YORK NY
700 AM EDT THU SEP 29 2016

NOTE: "FAIR" INDICATES FEW OR NO CLOUDS BELOW 12,000 FEET WITH NO
SIGNIFICANT WEATHER AND/OR OBSTRUCTIONS TO VISIBILITY.

NYZ071-072-176-178-NJZ106-104-291200-
NEW YORK CITY METRO AREA

CITY           SKY/WX    TMP DP  RH WIND       PRES   REMARKS
Central Park   CLOUDY    60  53  77 NE12G17   30.33R
LaGuardia APRT CLOUDY    63  55  75 NE22G31   30.30S
Kennedy INTL   CLOUDY    62  54  74 NE15G22   30.31R
Newark/Liberty CLOUDY    62  55  77 NE15      30.30R
Bronx Bot Gard   N/A     57  50  77 E3        30.33R
Wall St Helipt CLOUDY    63  57  82 NE17      30.30R
Teterboro      CLOUDY    60  50  69 NE8       30.31R
$$

NYZ177-179-078>081-291200-
LONG ISLAND NEW YORK

CITY           SKY/WX    TMP DP  RH WIND       PRES   REMARKS
Farmingdale    CLOUDY    61  55  81 NE12      30.31R
MacArthur/ISP  CLOUDY    60  56  86 NE14G21   30.31R
Shirley        CLOUDY    60  55  83 NE8G16    30.32R
Riverhead      NOT AVBL
Westhampton    CLOUDY    60  55  83 NE18G24   30.32S
Southampton      N/A     61  55  82 NE9       30.29R
Bridgehampton    N/A     59  55  88 E3        30.17S
East Hampton   CLOUDY    60  55  84 NE10G21   30.32R
Montauk          N/A     60  55  83 NE12G24   30.35R
$$

NYZ052-065-067-291200-
HUDSON VALLEY

CITY           SKY/WX    TMP DP  RH WIND       PRES   REMARKS
White Plains   CLOUDY    57  49  74 NE12      30.32R
Newburgh       CLOUDY    57  50  77 E8        30.36R
Montgomery     CLOUDY    58  49  72 NE9       30.35R
Poughkeepsie   CLOUDY    57  48  72 N5        30.35R
Albany         MOCLDY    50  47  89 CALM      30.40R
$$

NJZ001-105-106-008-010-013-015-019>022-104-291200-
NEW JERSEY

CITY           SKY/WX    TMP DP  RH WIND       PRES   REMARKS
Newark/Liberty CLOUDY    62  55  77 NE15      30.30R
Teterboro      CLOUDY    60  50  69 NE8       30.31R
Caldwell       CLOUDY    58  51  78 NE14      30.32R
Morristown     CLOUDY    57  54  88 NE12G18   30.29F
Somerville     CLOUDY    58  53  84 NE10      30.27R
Linden         NOT AVBL
Sussex         CLOUDY    55  52  89 NE8       30.33R
Abdover          N/A     55  52  89 VRB7      30.30S
Trenton        CLOUDY    60  58  92 E18G24    30.23S
Millville      LGT RAIN  65  65 100 E14       30.17R
Atlantic City  LGT RAIN  65  62  90 NE17G31   30.18R
Wrightstown    NOT AVBL
Toms River     LGT RAIN  63  62  97 NE17G28   30.22F FOG
Belmar         LGT RAIN  62  61  96 NE16G23   30.27S FOG
$$

PAZ047>061-062-071-291200-
EASTERN PENNSYLVANIA

CITY           SKY/WX    TMP DP  RH WIND       PRES   REMARKS
Philadelphia   LGT RAIN  63  61  93 E13       30.20S
Allentown      LGT RAIN  57  54  89 E15       30.26R
Scranton       LGT RAIN  55  52  89 NE12      30.26S
$$

CTZ002-004>006-009-010-012-RIZ004-006-007-MAZ004-011-015-291200-
SOUTHERN NEW ENGLAND
 IN CT

CITY           SKY/WX    TMP DP  RH WIND       PRES   REMARKS
Bradley INTL   CLOUDY    56  47  71 N12       30.40R
Hartford       CLOUDY    56  49  77 N10       30.38R
Danbury        CLOUDY    55  48  77 NE8       30.36R
Wtrbury/Oxford CLOUDY    54  45  71 NE15G24   30.36R
Bridgeport     CLOUDY    59  50  72 NE13      30.34R
Meriden        CLOUDY    58  48  69 NE10      30.37R
New Haven      CLOUDY    57  50  77 NE9       30.35R
Chester        CLOUDY    57  52  82 NE10      30.35R
Groton         CLOUDY    60  53  77 NE15G24   30.34R
Wilimantic     CLOUDY    57  50  77 NE13      30.38R

 IN RI

CITY           SKY/WX    TMP DP  RH WIND       PRES   REMARKS
Providence     CLOUDY    57  49  74 NE16G24   30.39R
Block Island   CLOUDY    59  55  87 NE18G28   30.34R
Westerly       CLOUDY    59  50  72 NE10      30.35R
 IN MA

CITY           SKY/WX    TMP DP  RH WIND       PRES   REMARKS
Boston         PTCLDY    55  49  80 NE16      30.42R
Worcester      CLOUDY    50  45  83 NE13G22   30.40R
Westfield      CLOUDY    55  48  77 NE8       30.41R
Provincetown   MOCLDY    57  53  86 NE17G26   30.38R
Nantucket      CLOUDY    59  56  89 NE24G32   30.32R
$$

ANZ330-335-338-340-345-350-353-355-291200-
COASTAL MARINE OBSERVATIONS


STATION/POSITION TIME  SKY/WX   TEMP    WIND        PRES    VSBY  WAVE
                                AIR SEA DIR/SP/G                  HT/PER
                 (UTC)          (F)     (DEG/KT/KT) (MB)    (MI)  (FT/S)
NY HARB ENTRANCE 0950            64 70   60/ 23/ 29 1024.2          8/ 7
20S FIRE ISLAND  0950            64 69   60/ 27/ 33 1023.5         11/ 7
GREAT SOUTH BAY  1015            62 67   40/ 17/ 23   N/A
23 SSW MONTAUK P 0950            62 66   40/ 25/ 31 1025.2          9/ 7
15 E BARNEGAT LI 1030               69                N/A          10/ 8
HUDSON CANYON    0950            66 68              1022.6          9/ 8
KINGS POINT      1024            60 71              1025.8
EXECUTION ROCKS  1045            62      50/ 21/ 27   N/A
CENTRAL LI SOUND 1045            61 71   60/ 19/ 23   N/A           3/ 4
EASTERN LI SOUND NOT AVBL
ROBBINS REEF     1024            62      70/ 18/ 22 1025.8
$$


>>>>>>>>>>>>>>>>>>>>>>>>>>>> KEY <<<<<<<<<<<<<<<<<<<<<<<<<<<
>                                                          <
>     SKY/WX - Sky Condition/Present Weather               <
>     TMP    - Temperature in Fahrenheit                   <
>     DP     - Dew Point in Fahrenheit                     <
>     RH     - Relative Humidity in Percent                <
>     WIND   - Direction (from) and Speed in MPH           <
>     PRES   - Mean Sea Level Pressure (inches of Hg)      <
>     WCI    - Wind Chill Index                            <
>     VSB    - VISIBILITY IN MILES                         <
>     HX     - HEAT INDEX                                  <
>     TC     - TEMPERATURE IN CELSIUS                      <
>     VRB    - VARIABLE WIND DIRECTION                     <
>                                                          <
>>>>>>>>>>>>>>>>>>>>>>>>>>>> KEY <<<<<<<<<<<<<<<<<<<<<<<<<<<




USA.gov is the U.S. government's official web portal to all federal, state and local government web resources and services.